Pensacola, FL

9:24 AM CDT on September 26, 2016 (GMT -0500)
Pensacola Naval Air Station

Weather History for KNPA - May, 2014

Change the Weather History Date:

Monday, May 26, 2014

  Actual Average Record
Temperature  
Mean Temperature 74 °F -  
Max Temperature 86 °F 82 °F 95 °F (2012)
Min Temperature 64 °F 66 °F 59 °F (2013)
Cooling Degree Days 9    
Growing Degree Days 24 (Base 50)    
Moisture  
Dew Point 70 °F    
Average Humidity 84    
Maximum Humidity 100    
Minimum Humidity 65    
Precipitation  
Precipitation 0.00 in - - ()
Sea Level Pressure  
Sea Level Pressure 30.12 in    
Wind  
Wind Speed 3 mph (SSE)    
Max Wind Speed 10 mph    
Max Gust Speed -    
Visibility 7 miles    
Events Fog    
Averages and records for this station are not official NWS values.
T = Trace of Precipitation, MM = Missing Value Source: NWS Daily Summary

Daily Weather History Graph

Daily Weather History Graph

Search for Another Location

Airport or City:

Trip Planner

Search our weather history database for the weather conditions in past years. The results will help you decide how hot, cold, wet, or windy it might be!

Date:

Astronomy

May. 26, 2014 Rise Set
Actual Time 5:49 AM CDT 7:43 PM CDT
Civil Twilight 5:22 AM CDT 8:10 PM CDT
Nautical Twilight 4:50 AM CDT 8:42 PM CDT
Astronomical Twilight 4:15 AM CDT 9:17 PM CDT
Moon 4:21 AM CDT 5:53 PM CDT
Length of Visible Light 14h 47m
Length of Day
13h 53m
Waning Crescent, 5% of the Moon is Illuminated
May 26
Waning Crescent
May 28
New
Jun 5
First Quarter
Jun 12
Full
Jun 19
Last Quarter

Hourly Weather History & Observations

Time (CDT) Temp. Heat Index Dew Point Humidity Pressure Visibility Wind Dir Wind Speed Gust Speed Precip Events Conditions
12:56 AM 66.0 °F - 64.9 °F 96% 30.10 in 5.0 mi Calm Calm - N/A   Clear
1:56 AM 68.0 °F - 66.0 °F 93% 30.09 in 5.0 mi Calm Calm - N/A   Clear
2:56 AM 66.0 °F - 64.9 °F 96% 30.09 in 4.0 mi Calm Calm - N/A   Clear
3:56 AM 68.0 °F - 66.9 °F 96% 30.09 in 5.0 mi North 3.5 mph - N/A   Clear
4:56 AM 66.9 °F - 66.0 °F 97% 30.11 in 4.0 mi NNW 3.5 mph - N/A   Clear
5:31 AM 64.9 °F - 64.9 °F 100% 30.11 in 4.0 mi Calm Calm - N/A   Partly Cloudy
5:38 AM 64.0 °F - 64.0 °F 100% 30.12 in 1.0 mi Calm Calm - N/A   Clear
5:45 AM 64.9 °F - 64.9 °F 100% 30.12 in 0.5 mi Calm Calm - N/A Fog Fog
5:53 AM 66.2 °F - 64.4 °F 94% 30.13 in 2.0 mi Calm Calm - N/A   Clear
5:56 AM 66.0 °F - 66.0 °F 100% 30.13 in 2.5 mi Calm Calm - N/A   Clear
6:10 AM 66.0 °F - 66.0 °F 100% 30.13 in 3.0 mi Calm Calm - N/A   Clear
6:56 AM 72.0 °F - 70.0 °F 93% 30.15 in 4.0 mi Calm Calm - N/A   Clear
7:56 AM 78.1 °F - 73.9 °F 87% 30.16 in 7.0 mi Calm Calm - N/A   Clear
8:56 AM 81.0 °F 84.4 °F 70.0 °F 69% 30.17 in 10.0 mi Calm Calm - N/A   Clear
9:56 AM 82.9 °F 88.0 °F 72.0 °F 69% 30.17 in 10.0 mi ESE 8.1 mph - N/A   Clear
10:56 AM 82.9 °F 88.0 °F 72.0 °F 69% 30.17 in 10.0 mi South 8.1 mph - N/A   Clear
11:56 AM 84.0 °F 91.9 °F 75.0 °F 74% 30.17 in 10.0 mi Variable 5.8 mph - N/A   Partly Cloudy
12:56 PM 84.9 °F 91.4 °F 73.0 °F 67% 30.15 in 10.0 mi Variable 5.8 mph - N/A   Partly Cloudy
1:56 PM 84.9 °F 90.7 °F 72.0 °F 65% 30.13 in 10.0 mi SSE 8.1 mph - N/A   Clear
2:56 PM 84.0 °F 91.2 °F 73.9 °F 72% 30.11 in 10.0 mi SSE 10.4 mph - N/A   Clear
3:56 PM 84.0 °F 91.2 °F 73.9 °F 72% 30.09 in 10.0 mi SE 9.2 mph - N/A   Clear
4:56 PM 82.9 °F 89.4 °F 73.9 °F 74% 30.09 in 10.0 mi South 6.9 mph - N/A   Clear
5:56 PM 82.9 °F 88.8 °F 73.0 °F 72% 30.09 in 10.0 mi SSW 8.1 mph - N/A   Clear
6:56 PM 81.0 °F 86.2 °F 73.9 °F 79% 30.10 in 10.0 mi SSE 6.9 mph - N/A   Scattered Clouds
7:56 PM 80.1 °F 84.2 °F 73.0 °F 79% 30.11 in 10.0 mi SE 6.9 mph - N/A   Scattered Clouds
8:15 PM 80.1 °F 84.2 °F 73.0 °F 79% 30.10 in 10.0 mi SE 8.1 mph - N/A   Mostly Cloudy
8:24 PM 80.1 °F 84.5 °F 73.9 °F 81% 30.11 in 10.0 mi SE 8.1 mph - N/A   Scattered Clouds
8:56 PM 79.0 °F - 73.9 °F 84% 30.12 in 10.0 mi SE 6.9 mph - N/A   Clear
9:56 PM 79.0 °F - 73.0 °F 82% 30.13 in 10.0 mi SSE 8.1 mph - N/A   Clear
10:56 PM 78.1 °F - 73.0 °F 84% 30.13 in 10.0 mi SSE 8.1 mph - N/A   Clear
11:54 PM 78.8 °F - 73.4 °F 83% 30.12 in 9.0 mi SE 6.9 mph - N/A   Mostly Cloudy
11:56 PM 79.0 °F - 73.9 °F 84% 30.12 in 9.0 mi SE 6.9 mph - N/A   Mostly Cloudy